This is the latest recevied weather packets stored in our database for station/object N2WH. If no packets are shown the sender has not sent any weather packets the latest 10 day(s).
| Time | Temp. | Humidity | Pressure | Rain* | Wind** | Luminosity | Snow |
|---|---|---|---|---|---|---|---|
| 1777302961 | 18.89° C | 43% | 1025.6 hPa | 0 mm | - | 786 W/m² | - |
| 1777302656 | 18.89° C | 46% | 1025.5 hPa | 0 mm | - | 772 W/m² | - |
| 1777302356 | 18.33° C | 47% | 1025.6 hPa | 0 mm | - | 767 W/m² | - |
| 1777302053 | 17.78° C | 48% | 1025.8 hPa | 0 mm | - | 762 W/m² | - |
| 1777301751 | 18.33° C | 49% | 1025.4 hPa | 0 mm | - | 698 W/m² | - |
| 1777301447 | 17.78° C | 51% | 1025.6 hPa | 0 mm | - | 731 W/m² | - |
| 1777301145 | 16.67° C | 49% | 1025.5 hPa | 0 mm | - | 705 W/m² | - |
| 1777300842 | 16.67° C | 53% | 1025.7 hPa | 0 mm | - | 682 W/m² | - |
| 1777300540 | 16.67° C | 50% | 1025.6 hPa | 0 mm | - | 675 W/m² | - |
| 1777300237 | 16.67° C | 51% | 1025.7 hPa | 0 mm | - | 656 W/m² | - |
| 1777299933 | 16.67° C | 49% | 1025.6 hPa | 0 mm | - | 668 W/m² | - |
| 1777299630 | 16.11° C | 49% | 1025.6 hPa | 0 mm | - | 664 W/m² | - |
| 1777299329 | 16.11° C | 49% | 1025.3 hPa | 0 mm | - | 635 W/m² | - |
| 1777299025 | 16.67° C | 51% | 1025.1 hPa | 0 mm | - | 567 W/m² | - |
| 1777298723 | 16.67° C | 55% | 1025.2 hPa | 0 mm | - | 608 W/m² | - |
| 1777298419 | 16.67° C | 54% | 1025.2 hPa | 0 mm | - | 610 W/m² | - |
| 1777298115 | 16.11° C | 56% | 1025.2 hPa | 0 mm | - | 544 W/m² | - |
| 1777297809 | 15.56° C | 59% | 1025.3 hPa | 0 mm | - | 555 W/m² | - |
| 1777297508 | 15° C | 63% | 1025.1 hPa | 0 mm | - | 505 W/m² | - |
| 1777297204 | 14.44° C | 63% | 1025.1 hPa | 0 mm | - | 324 W/m² | - |
| 1777296901 | 14.44° C | 68% | 1025.1 hPa | 0 mm | - | 176 W/m² | - |
| 1777296597 | 14.44° C | 67% | 1025 hPa | 0 mm | - | 89 W/m² | - |
| 1777296268 | 13.89° C | 66% | 1024.7 hPa | 0 mm | - | 108 W/m² | - |
| 1777295964 | 13.89° C | 67% | 1024.8 hPa | 0 mm | - | 246 W/m² | - |
| 1777295662 | 13.89° C | 68% | 1024.7 hPa | 0 mm | - | 114 W/m² | - |
* Rain latest hour (hover to see other rain measurements)
** Current wind speed in m/s (hover to see current wind gust speed)